Simultaneous Nadir Overpasses (SNOs) Predictions

Prediction of SNOs between LANDSAT-8 and NOAA-19 Satellite Orbit:

Table of predicted SNOs for the next 14.0 days since TLE Epoch: 9/2/2023
Index Date (LANDSAT-8) Time (LANDSAT-8) Lat,Lon (LANDSAT-8) SZA (LANDSAT-8 ) Date (NOAA-19) Time (NOAA-19) Lat,Lon (NOAA-19) SZA (NOAA-19 ) Distance(km) Time Diff (sec)
1 09/02/2023 13:42:21 -80.93,-168.33 105.09 09/02/2023 13:42:40 -80.93,-168.32 105.07 0.39 19
2 09/04/2023 19:16:04 80.93, -71.79 75.75 09/04/2023 19:15:00 80.93, -71.92 75.71 2.24 64
3 09/04/2023 20:05:31 -80.92, 95.80 104.25 09/04/2023 20:06:03 -80.93, 95.91 104.22 2.31 32
4 09/07/2023 01:39:13 80.94,-167.44 76.62 09/07/2023 01:38:22 80.93,-167.46 76.60 0.93 51
5 09/07/2023 02:28:40 -80.93, 0.16 103.37 09/07/2023 02:29:26 -80.93, 0.07 103.36 1.55 46
6 09/09/2023 08:02:23 80.91, 96.44 77.44 09/09/2023 08:01:45 80.93, 96.57 77.45 2.79 38
7 09/09/2023 08:51:49 -80.94, -95.59 102.50 09/09/2023 08:52:48 -80.93, -95.47 102.47 2.08 59
8 09/11/2023 14:25:30 80.93, 0.92 78.35 09/11/2023 14:25:06 80.93, 0.93 78.34 0.44 24
9 09/11/2023 15:14:57 -80.93, 168.55 101.64 09/11/2023 15:16:10 -80.93, 168.54 101.61 0.28 73



Historial Predications of SNOs between LANDSAT-8 and NOAA-19
